Location: Astronomy Club of Akron Observatory
(40.9700°N, 81.5606°W)
Time: 06:03:12
(UTC-04:00)

ISS - Visible Passes

Search period start: 25 March 2019 00:00
Search period end: 04 April 2019 00:00
Orbit: 408 x 411 km, 51.6° (Epoch: 25 March)

Date Brightness Start Highest point End Pass type
(mag) Time Alt. Az. Time Alt. Az. Time Alt. Az.
25 Mar -1.3 21:28:45 10° WNW 21:31:07 18° NNW 21:32:45 13° NNE visible
26 Mar -1.6 20:37:33 10° WNW 20:40:18 23° NNW 20:43:02 10° NE visible
26 Mar -0.7 22:16:08 10° NNW 22:17:06 12° NNW 22:17:06 12° NNW visible
27 Mar -1.0 21:25:01 10° NW 21:26:51 14° N 21:28:36 10° NNE visible
28 Mar -1.2 20:33:46 10° NW 20:35:56 16° NNW 20:38:07 10° NNE visible
28 Mar -0.8 22:11:44 10° NNW 22:12:48 13° N 22:12:48 13° N visible
29 Mar -1.1 21:20:56 10° NNW 21:22:36 13° N 21:24:11 10° NNE visible
30 Mar -1.1 20:29:55 10° NW 20:31:38 13° N 20:33:20 10° NNE visible
30 Mar -1.1 22:06:52 10° NNW 22:08:17 16° N 22:08:17 16° N visible
31 Mar -1.4 21:16:18 10° NNW 21:18:17 15° N 21:19:36 12° NE visible
01 Apr -1.2 20:25:35 10° NNW 20:27:17 13° N 20:29:00 10° NE visible
01 Apr -1.7 22:01:49 10° NW 22:03:41 23° N 22:03:41 23° N visible
02 Apr -1.9 21:11:17 10° NNW 21:13:49 20° NNE 21:15:00 17° NE visible
02 Apr -0.4 22:47:27 10° NW 22:47:45 12° NW 22:47:45 12° NW visible
03 Apr -1.5 20:20:42 10° NNW 20:22:53 16° NNE 20:25:04 10° NE visible
03 Apr -2.5 21:56:46 10° NW 21:59:06 38° NNW 21:59:06 38° NNW visible
